Content
SEND FEEDBACK

Daily
Averages
Monthly
Summary
Egypt

ALEXANDRIA, EGYPT


Home > Middle East > Egypt
Elevation: 23 feet     Latitude: 31 12N     Longitude: 029 57E

WEATHER
 
SELECT A DAY
Number of Records: 160,808;   Date Range: 7/1/96 - 7/30/14
 
SHARE

PRINT THIS DATA

[ ← Previous Day ]
WEATHER ALMANAC - JANUARY 23, 2013
[ Next Day → ]
[ °C ]   °F
Weather ElementAverageHighLow
Temperature59.2 °F69.8 °F (1:00 pm)48.2 °F (7:00 am)
Dewpoint49.8 °F57.2 °F (10:00 am)35.6 °F (1:00 pm)
Humidity72.5 %94 % (4:00 am)28 % (1:00 pm)
Barometer30.11 in30.15 in (10:00 am)30.06 in (1:00 am)
Wind Speed3.2 mph9.2 mph (11:00 am)
Weather ElementAverage
Visibility4.8 mi
Wind DirectionSSE (160 °)

Weather ElementTotal
Precipitation---
Heating Degree Days6 (Base 65)
Growing Degree Days9 (Base 50)
Averaged from 27 records on January 23, 2013
WEATHER CONDITIONS BREAKOUT
WIND DIRECTION BREAKOUT
WEATHER BY HOUR - JANUARY 23, 2013
[ °C ]   °F
Local TimeTemperatureDewpointHumidityBarometerVisibilityWind DirectionWind SpeedGust SpeedPrecipitationEventsConditions
1:00 AM59.0 °F51.8 °F77 %30.06 in6.2 miCalmPartly Cloudy
2:00 AM59.0 °F53.0 °F74 %30.08 in6.0 miCalm
2:00 AM59.0 °F53.6 °F82 %30.06 inCalmClear
3:00 AM55.4 °F51.8 °F88 %30.09 inCalmClear
4:00 AM53.6 °F51.8 °F94 %30.09 inCalmClear
5:00 AM50.0 °F46.4 °F87 %30.06 inCalmClear
6:00 AM50.0 °F46.4 °F87 %30.06 inCalmClear
7:00 AM48.2 °F46.4 °F93 %30.09 in1.9 miCalmMist
8:00 AM50.0 °F47.0 °F84 %30.13 in4.0 miSouth (180°)2.3 mphMist
8:00 AM50.0 °F46.4 °F87 %30.12 in3.7 miSouth (180°)2.3 mph
9:00 AM57.2 °F53.6 °F88 %30.12 inSW (220°)4.6 mphClear
10:00 AM62.6 °F57.2 °F82 %30.15 inNorth (360°)6.9 mphClear
11:00 AM66.2 °F55.4 °F68 %30.15 inSW (230°)9.2 mphClear
12:00 PM68.0 °F53.6 °F60 %30.12 inSW (230°)6.9 mphClear
1:00 PM69.8 °F35.6 °F28 %30.12 inWest (260°)6.9 mphClear
2:00 PM68.0 °F48.0 °F38 %30.11 in6.0 miWest (270°)9.2 mph
2:00 PM68.0 °F48.2 °F49 %30.09 inWest (270°)9.2 mphClear
3:00 PM68.0 °F46.4 °F46 %30.12 inWest (270°)9.2 mphClear
4:00 PM66.2 °F48.2 °F52 %30.12 inWest (260°)8.1 mphClear
5:00 PM64.4 °F48.2 °F56 %30.12 inWNW (300°)3.5 mphClear
6:00 PM62.6 °F50.0 °F63 %30.15 inWest (280°)2.3 mphClear
7:00 PM60.8 °F50.0 °F68 %30.15 inWNW (290°)2.3 mphClear
8:00 PM60.0 °F51.0 °F65 %30.15 in6.0 miWest (280°)2.3 mph
8:00 PM60.8 °F51.8 °F72 %30.15 inWest (280°)2.3 mphClear
9:00 PM57.2 °F51.8 °F82 %30.12 inCalmClear
10:00 PM53.6 °F51.8 °F94 %30.12 inCalmClear
11:00 PM51.8 °F50.0 °F94 %30.12 inCalmClear
Hourly data recorded from HEAX, located miles away from Alexandria, Egypt







STORIES FROM OUR PARTNERS